EHI
0 0 0 0 0 0 0 0 0 0 0 0 0 0 0 0 0 0 0 0 0 0 0 0 2 6 7 5 3 5 7 10 12 13 11 9 5 3 2 1 2 3 3 3 1 0 0 0 0
0 0 0 0 0 0 0 0 0 0 0 0 0 0 0 0 0 0 0 0 0 0 0 0 1 4 5 4 3 4 7 10 11 11 9 5 3 2 2 2 2 3 4 3 2 1 0 0 0
0 0 0 0 0 0 0 0 0 0 0 0 0 0 0 0 0 0 0 0 0 0 0 0 1 3 3 2 2 4 7 9 9 8 6 2 0 0 1 1 2 3 4 4 3 2 1 0 1
0 0 0 0 0 0 0 0 0 0 0 0 0 0 0 0 0 0 0 0 0 0 0 0 1 2 2 1 2 4 7 7 6 5 4 2 0 0 1 1 1 1 3 4 4 3 2 2 2
0 0 0 0 0 0 0 0 0 0 0 0 0 0 0 0 0 0 0 0 0 0 0 0 0 1 3 3 2 3 5 6 4 3 3 2 1 2 3 2 1 1 2 3 4 4 3 3 3
0 0 0 0 0 0 0 0 0 0 0 0 0 0 0 0 0 0 0 0 0 0 0 0 0 1 3 4 3 2 3 5 4 3 3 4 4 5 5 4 1 1 1 2 3 3 3 4 4
0 0 0 0 0 0 0 0 0 0 0 0 0 0 0 0 0 0 1 1 1 0 0 0 0 1 2 3 2 1 1 3 4 3 4 4 5 5 5 4 2 1 1 1 1 3 3 3 4
0 0 0 0 0 0 0 0 0 0 0 0 0 0 0 0 0 1 3 4 3 1 0 0 0 0 1 1 1 0 0 1 2 2 3 3 3 3 3 3 1 0 0 0 1 2 3 3 3
0 0 0 0 0 0 0 0 0 0 0 0 0 0 0 0 1 2 4 4 4 2 1 0 0 0 0 0 0 0 0 0 0 1 1 1 1 1 1 1 0 0 0 0 0 1 2 2 2
0 0 0 0 0 0 0 0 0 0 0 0 0 0 0 0 1 2 3 3 3 2 1 0 0 0 0 0 0 0 0 0 0 0 0 0 0 0 0 0 0 0 0 0 0 0 1 1 1
0 0 0 0 0 0 0 0 0 0 0 0 0 0 0 0 1 2 2 2 1 1 0 0 1 0 0 0 0 0 0 0 0 0 0 0 0 0 0 0 0 0 0 0 0 0 0 0 0
0 0 0 0 0 0 0 0 0 0 0 0 0 0 0 0 0 1 1 1 0 0 0 0 0 0 0 0 0 0 0 0 0 0 0 0 0 0 0 0 0 0 0 0 0 0 0 0 0
0 0 0 0 0 0 0 0 0 0 0 0 0 0 0 0 0 0 0 0 0 0 0 0 0 0 0 0 0 0 0 0 0 0 0 0 0 0 0 0 0 0 0 0 0 0 0 0 0
0 0 0 0 0 0 0 0 0 0 0 0 0 0 0 0 0 0 0 0 0 0 0 0 0 0 0 0 0 0 0 0 0 0 0 0 0 0 0 0 0 0 0 0 0 0 0 0 0
0 0 0 0 0 0 0 0 0 0 0 0 0 0 0 0 0 0 0 0 0 0 0 0 0 0 0 0 0 0 0 0 0 0 0 0 0 0 0 0 0 0 0 0 0 0 0 0 0
0 0 0 0 0 0 0 0 0 0 0 0 0 0 0 0 0 0 0 0 0 0 0 0 0 0 0 0 0 0 0 0 0 0 0 0 0 0 0 0 0 0 0 0 0 0 0 0 0
0 0 0 0 0 0 0 0 0 0 0 0 0 0 0 0 0 0 0 0 0 0 0 0 0 0 1 1 0 0 0 0 0 0 0 0 0 0 0 0 0 0 0 0 0 0 0 0 0
0 0 0 0 0 0 0 0 0 0 0 0 0 0 0 0 0 0 0 0 0 0 0 0 0 0 1 2 1 0 0 0 0 0 0 0 0 0 0 0 0 0 0 0 0 0 0 0 0
0 0 0 0 0 0 0 0 0 0 0 0 0 0 0 0 0 0 0 0 0 0 0 0 0 0 1 2 1 0 0 0 0 0 0 0 0 0 0 0 0 0 0 0 0 0 0 0 0
0 0 0 0 0 0 0 0 0 0 0 0 0 0 0 0 0 0 0 0 0 0 0 0 0 0 0 1 2 1 0 0 0 0 0 0 0 0 0 0 0 0 0 0 0 0 0 0 0
0 0 0 0 0 0 0 0 0 0 0 0 0 0 0 0 0 0 0 0 0 0 0 0 0 0 0 1 2 2 1 0 0 0 0 0 0 0 0 0 0 0 0 0 0 0 0 0 0
0 0 0 0 0 0 0 0 0 0 0 0 0 0 0 0 0 0 0 0 0 0 0 0 0 0 0 1 2 2 1 0 0 0 0 0 0 0 0 0 0 0 0 0 0 0 0 0 0
0 0 0 0 0 0 0 0 0 0 0 0 0 0 0 0 0 0 0 0 0 0 0 0 0 0 0 0 1 1 0 0 0 0 0 0 0 0 0 0 0 0 0 0 0 0 0 0 0
0 0 0 0 0 0 0 0 0 0 0 0 0 0 0 0 0 0 0 0 0 0 0 0 0 0 0 0 0 0 0 0 0 0 0 0 0 0 0 0 0 0 0 0 0 0 0 0 0
0 0 0 0 0 0 0 0 0 0 0 0 0 0 0 0 0 0 0 0 0 0 0 0 0 0 0 0 0 0 0 0 0 0 0 0 0 0 0 0 0 0 0 0 0 0 0 0 0
0 0 0 0 0 0 0 0 0 0 0 0 0 0 0 0 0 0 0 0 0 0 0 0 0 0 0 0 0 0 0 0 0 0 0 0 0 0 0 0 0 0 0 0 0 0 0 0 0
0 0 0 0 0 0 0 0 0 0 0 0 0 0 0 0 0 0 0 0 0 0 0 0 0 0 0 0 0 0 0 0 0 0 0 0 0 0 0 0 0 0 0 0 0 0 0 0 0
0 0 0 0 0 0 0 0 0 0 0 0 0 0 0 0 0 0 0 0 0 0 0 0 0 0 0 0 0 0 0 0 0 0 0 0 0 0 0 0 0 0 0 0 0 0 0 0 0
0 0 0 0 0 0 0 0 0 0 0 0 0 0 0 0 0 0 0 0 0 0 0 0 0 0 0 0 0 0 0 0 0 0 0 0 0 0 0 0 0 0 0 0 0 0 0 0 0
0 0 0 0 0 0 0 0 0 0 0 0 0 0 0 0 0 0 0 0 0 0 0 0 0 0 0 0 0 0 0 0 0 0 0 0 0 0 0 0 0 0 0 0 0 0 0 0 0
Wind_Speed
5 2 2 4 6 4 3 5 3 2 2 1 1 3 5 4 4 3 1 0 1 2 2 3 4 5 6 6 6 7 7 7 7 6 6 6 6 6 6 6 7 7 7 7 8 8 8 8 8
1 1 4 5 5 2 5 4 4 4 2 0 2 3 3 1 1 2 0 1 1 3 2 2 4 5 6 6 6 6 7 7 6 6 6 5 5 5 5 5 5 6 7 7 7 7 7 8 8
1 3 4 4 4 6 5 4 4 2 1 0 2 2 2 1 1 1 1 1 3 3 2 2 4 5 5 6 6 6 6 6 6 6 6 5 5 5 5 5 5 5 6 6 6 6 6 7 7
2 4 5 3 4 5 4 2 1 1 2 2 2 2 1 1 1 1 1 3 4 3 2 2 4 5 5 5 5 5 5 5 5 5 5 5 5 5 5 4 4 5 5 5 5 5 5 6 7
4 4 3 1 4 4 3 3 2 0 1 2 2 2 1 3 2 2 3 4 4 3 2 2 4 5 5 4 4 4 4 4 4 4 4 4 4 4 4 4 4 4 4 4 4 4 5 6 6
4 4 3 4 4 3 3 2 1 1 0 0 2 2 1 2 2 2 3 3 3 3 2 2 3 4 4 4 4 4 4 4 3 3 3 3 3 4 4 4 4 4 4 4 4 4 4 5 6
4 4 4 4 3 3 2 1 2 2 1 2 3 3 1 2 1 2 3 3 3 3 3 2 1 2 3 4 3 4 3 3 3 2 3 2 2 3 4 3 3 3 3 3 3 4 4 4 5
4 4 2 3 3 4 1 0 1 2 2 1 3 5 4 3 1 3 4 3 3 3 2 2 2 1 1 1 2 3 3 3 2 2 2 2 2 2 2 2 2 2 2 3 3 3 4 4 4
4 3 4 5 5 3 0 1 1 1 1 1 0 2 2 3 3 4 3 2 2 2 1 1 1 1 1 1 2 2 2 2 1 1 2 2 1 1 1 1 1 1 2 2 2 2 3 3 3
4 4 7 4 3 2 0 0 1 1 1 1 1 1 2 2 3 3 2 1 1 1 1 0 0 0 1 1 1 0 0 0 0 0 1 1 1 1 1 1 1 0 1 1 1 2 2 2 1
4 6 3 2 1 1 1 1 1 2 3 5 4 3 1 1 1 2 3 3 3 2 1 1 1 1 1 1 1 0 0 0 0 0 1 1 1 1 1 1 0 0 0 0 0 0 1 1 1
3 4 3 2 1 1 2 2 2 5 7 4 4 3 2 3 3 4 4 3 2 2 2 2 2 1 1 1 1 1 1 0 0 0 1 2 1 1 1 1 0 0 0 1 1 1 1 1 1
4 3 3 3 3 3 3 4 4 7 7 4 2 3 4 5 4 4 3 3 3 3 3 2 2 2 2 1 1 1 1 1 1 1 1 2 2 2 1 1 1 1 1 1 1 1 1 1 1
3 3 4 3 3 2 4 5 4 9 4 4 5 6 6 6 5 3 3 4 4 4 3 2 2 3 2 2 2 1 1 1 1 1 1 2 2 2 2 2 2 1 2 2 2 2 2 2 2
1 2 4 4 4 3 2 8 9 8 4 5 6 6 6 6 5 6 6 5 5 4 3 3 2 2 3 2 2 1 2 1 1 1 2 2 2 3 3 2 2 2 2 2 2 2 1 1 1
1 1 4 4 3 3 4 11 6 3 5 7 6 6 5 6 6 6 5 5 4 3 3 2 1 1 2 2 2 1 1 2 2 2 2 2 2 3 3 2 2 2 2 2 2 2 2 2 2
1 3 5 5 3 3 6 10 5 1 4 6 6 6 6 5 5 5 5 5 4 4 3 2 2 2 2 2 2 2 1 2 2 1 2 2 2 2 3 2 2 2 2 2 2 2 2 2 2
6 5 5 6 3 3 6 11 10 5 5 7 7 6 6 6 8 6 4 4 4 3 3 3 2 2 1 1 0 0 1 1 1 2 2 3 2 3 3 2 3 3 2 2 2 3 2 3 2
4 4 5 5 2 3 8 13 13 8 7 8 8 7 7 8 6 4 3 3 3 2 2 3 3 2 1 1 1 1 1 1 1 2 2 3 3 3 3 3 3 3 3 3 3 3 3 2 1
5 6 6 5 2 3 7 13 12 9 9 9 9 9 8 6 4 3 3 3 4 4 3 3 3 3 2 2 2 2 1 1 2 2 2 2 3 3 3 3 3 3 3 3 3 3 2 2 2
8 8 6 5 4 3 6 11 7 5 5 6 7 7 7 8 7 5 4 4 4 4 4 3 3 3 2 2 1 0 0 1 1 1 2 2 3 3 3 4 4 4 4 4 4 4 5 3 3
8 7 6 4 3 5 1 8 8 5 5 5 6 6 7 6 6 5 5 4 4 5 3 3 3 2 2 2 2 2 2 2 3 3 2 3 3 3 3 4 4 4 4 4 5 5 4 4 4
6 2 4 4 4 5 3 6 11 3 5 6 6 6 6 6 6 6 6 6 4 3 2 2 2 1 1 2 2 2 2 3 2 2 3 3 3 3 3 4 4 4 4 4 4 5 5 4 5
5 3 2 1 1 7 7 7 10 5 7 5 5 5 5 5 5 4 3 2 2 1 1 1 1 1 1 1 2 2 3 3 3 3 3 3 2 2 3 3 3 4 4 4 5 5 6 6 5
5 5 0 2 2 8 4 6 12 7 6 5 6 5 4 4 4 4 3 2 2 2 1 1 1 1 1 1 1 2 3 4 4 4 3 3 3 3 3 3 4 4 4 4 5 5 6 6 6
8 8 7 7 6 4 3 9 10 5 4 4 4 4 3 4 4 4 5 4 3 3 2 2 1 1 1 1 2 2 3 3 3 4 3 4 3 4 4 4 4 5 5 5 5 5 6 6 7
7 6 5 4 1 3 6 7 10 3 3 2 2 2 3 3 3 4 3 3 3 3 3 3 2 2 2 2 2 2 3 3 3 4 3 3 4 4 4 4 4 5 5 5 5 5 6 6 7
5 7 5 5 5 6 6 6 6 4 3 2 2 3 3 2 2 2 2 3 3 3 2 1 2 2 2 2 2 2 3 3 3 3 4 4 4 4 5 5 5 5 6 6 6 6 6 6 6
5 5 4 4 4 5 5 8 5 5 4 4 4 3 3 3 3 3 2 2 2 1 1 1 1 1 2 2 3 3 3 3 3 3 4 4 4 5 5 5 5 6 6 6 6 7 6 7 7
4 6 7 6 5 5 4 9 3 4 3 3 3 3 2 3 2 2 1 1 1 2 1 1 2 2 3 2 2 3 3 3 3 4 4 4 5 5 5 5 5 6 7 7 7 8 8 8 9
Wind_Direction
3 14 65 58 58 57 234 242 224 246 230 236 150 128 137 142 154 165 218 111 117 141 164 166 133 127 125 122 126 129 129 125 124 123 123 122 129 137 139 144 147 146 143 139 138 141 142 140 138
354 43 57 64 96 157 252 236 218 222 215 89 67 90 96 97 73 109 14 296 115 133 136 135 126 127 127 124 121 128 131 131 131 132 133 134 132 134 142 143 141 142 142 142 143 147 148 146 145
15 56 84 86 143 188 221 220 214 269 286 127 71 60 110 126 92 156 265 166 106 109 111 116 114 117 120 122 123 124 129 136 139 138 142 144 143 139 140 141 141 139 140 144 149 154 154 153 151
79 54 61 94 216 226 228 246 249 326 8 45 99 65 19 8 312 218 97 118 104 89 84 96 108 112 111 116 120 120 121 132 142 143 145 148 148 144 142 135 134 138 143 148 152 158 158 161 159
62 81 88 227 238 247 250 271 262 292 346 18 91 109 340 344 18 75 98 110 110 88 63 79 97 103 103 102 107 117 120 123 130 142 146 149 152 150 144 140 137 136 145 152 156 160 163 165 168
65 77 127 222 242 260 263 260 214 193 213 24 108 124 221 337 48 65 91 96 104 103 76 65 89 92 95 99 100 104 112 119 124 130 137 145 142 136 135 139 144 146 149 159 169 172 164 167 172
112 121 182 207 237 256 251 218 165 172 190 212 152 132 254 303 37 78 79 78 75 81 79 53 49 76 83 87 90 98 101 105 115 121 127 126 125 128 132 132 136 143 155 163 175 175 172 167 172
126 122 188 213 213 241 279 8 140 161 204 227 144 154 205 226 124 82 71 64 63 58 61 56 44 53 67 74 73 85 85 85 92 96 106 111 115 125 120 127 133 142 153 163 168 173 169 168 171
99 105 212 211 200 226 315 41 347 354 114 335 229 187 206 136 107 87 74 50 51 44 25 43 57 46 50 76 67 69 65 65 87 95 93 112 126 138 122 106 116 155 158 167 175 184 171 160 171
122 191 221 212 196 198 281 204 282 23 1 306 336 349 61 100 122 126 140 165 194 229 263 269 119 73 68 60 53 59 63 47 59 75 109 118 117 109 94 108 127 171 180 184 203 210 167 134 150
171 205 222 238 224 203 239 265 255 164 241 216 207 211 169 140 160 173 191 197 211 222 225 231 199 171 133 123 95 71 67 61 57 65 116 120 117 109 96 112 156 219 105 144 269 105 96 132 154
194 236 222 242 223 218 224 239 245 212 228 227 205 189 185 194 206 207 206 215 217 219 235 226 199 182 178 151 140 140 123 113 128 193 147 134 125 119 130 130 169 152 145 162 140 134 144 164 189
218 247 243 243 260 249 241 238 245 245 243 252 237 226 220 220 226 228 221 223 222 224 234 235 206 195 191 162 169 145 176 192 213 205 187 163 159 170 168 169 176 184 170 174 173 169 174 191 212
224 240 265 264 250 248 240 256 235 252 229 223 220 228 230 226 224 227 231 228 225 225 232 227 216 206 189 184 187 197 195 204 207 209 222 188 177 178 184 191 195 200 195 191 186 189 195 206 215
231 292 295 253 222 232 223 271 233 242 203 222 227 231 236 235 227 220 220 221 223 226 227 221 223 204 192 200 205 205 203 193 209 226 231 212 192 186 184 190 199 208 200 195 189 190 190 207 228
107 244 266 264 201 201 172 260 258 222 196 231 239 240 240 243 235 231 223 221 222 214 212 221 216 192 201 206 208 211 208 201 217 223 221 219 209 195 184 191 208 209 192 187 194 193 205 219 229
209 227 240 275 220 188 198 252 267 230 206 238 246 245 238 242 248 241 227 216 214 209 203 203 202 193 205 211 209 213 210 211 221 223 223 223 216 204 191 200 211 200 195 198 209 207 202 219 238
210 216 236 246 252 201 232 256 271 264 237 244 249 249 241 236 241 238 226 219 212 205 198 197 202 204 194 201 186 226 240 239 226 221 227 225 217 209 198 205 209 197 195 206 210 215 217 215 227
195 211 244 255 256 238 249 264 269 264 247 247 248 243 240 241 244 237 223 204 189 199 198 203 201 208 176 180 205 201 242 256 256 242 236 225 215 209 202 217 209 201 203 209 208 205 224 228 189
218 235 252 278 282 256 278 275 268 252 240 235 237 239 234 235 237 228 215 200 199 202 203 208 206 206 202 205 217 209 213 240 250 258 257 238 222 217 217 215 215 211 210 211 207 197 204 228 191
224 225 234 253 319 309 305 292 268 254 237 243 239 235 226 214 214 212 206 207 208 211 214 214 219 214 215 203 190 176 22 336 304 282 269 258 236 224 222 221 219 217 211 214 211 204 203 216 221
235 221 212 230 266 285 305 290 281 269 281 257 247 235 227 219 208 203 200 206 212 216 219 210 213 216 218 191 180 192 212 237 245 247 257 264 246 236 229 223 220 219 217 217 218 210 204 203 220
207 165 184 209 212 272 239 251 278 273 264 257 247 235 229 218 203 202 204 207 211 205 200 196 202 225 231 205 192 202 227 240 248 252 259 264 257 242 237 229 225 224 223 225 226 219 211 209 215
155 104 69 64 149 255 218 209 271 233 223 242 244 236 231 219 210 208 206 189 192 185 175 175 183 255 256 220 214 209 225 239 250 254 254 261 260 250 243 237 233 232 229 229 231 227 221 221 224
158 136 131 288 251 246 188 212 252 245 234 231 240 239 235 218 201 194 188 188 192 189 192 194 183 258 267 250 250 235 236 237 239 245 244 252 257 253 244 240 237 237 236 236 234 232 232 226 225
189 173 181 203 224 263 209 234 255 260 263 258 249 235 227 215 201 199 199 194 195 202 205 200 202 255 270 268 278 272 261 250 248 246 245 245 249 251 247 239 239 241 238 241 235 236 237 232 229
166 202 178 142 180 267 251 270 294 266 279 278 261 227 228 220 204 202 202 198 204 209 215 204 202 245 273 280 289 293 283 267 259 254 249 249 250 255 248 243 243 243 239 238 237 240 241 238 234
173 154 144 170 194 242 267 256 248 259 257 270 250 233 240 227 211 211 202 201 211 212 216 207 210 237 272 284 282 292 285 272 264 256 254 255 256 255 252 248 245 242 239 236 235 241 242 239 242
165 176 174 166 181 189 252 263 226 220 226 227 237 238 230 221 219 223 221 210 219 230 229 232 261 275 284 285 287 289 286 283 282 271 263 257 259 256 251 249 250 249 245 240 238 242 242 243 247
185 185 167 183 213 198 217 265 277 216 219 211 246 261 245 223 214 214 220 229 229 239 250 252 262 273 279 285 298 294 293 294 291 284 278 266 261 259 251 249 250 252 249 242 240 245 244 243 247